スキッフ彗星

223P/Skiff (2019)

English version
Home page
Updated on April 17, 2020

---------------------------------------------------------------------

・ プロフィール

・ 写真集

・ 軌道要素

Epoch 2019 Feb. 6.0 TT = JDT 2458520.5
T 2019 Jan. 27.27165 TT                                 Rudenko
q   2.4308739            (2000.0)            P               Q
n   0.11624486     Peri.   37.82482     +0.89382120     -0.43625046
a   4.1580228      Node   346.79280     +0.21162451     +0.61439945
e   0.4153774      Incl.   27.01410     +0.39534634     +0.65741832
P   8.48
From 711 observations 2001 July 27-2020 Feb. 29, mean residual 0".6.

・ 光度変化

        m1 = 12.5 + 5 logΔ + 10.0 log r

---------------------------------------------------------------------

軌道要素はM.P.E.C. 2020-F67に掲載されたものです。
光度グラフはComet for Windowsで作成したものです。

---------------------------------------------------------------------

Copyright(C) Seiichi Yoshida (comet@aerith.net). All rights reserved.